Scio, NY

12:28 PM EST on February 27, 2017 (GMT -0500)
Wellsville Municipal-Tarantine

Weather History for KELZ - March, 2013

Change the Weather History Date:

Friday, March 15, 2013

  Actual Average (KDSV) Record (KDSV)
Temperature  
Mean Temperature 26 °F -  
Max Temperature 33 °F 44 °F 82 °F (1990)
Min Temperature 19 °F 23 °F -3 °F (1993)
Degree Days  
Heating Degree Days 39    
Moisture  
Dew Point 22 °F    
Average Humidity 78    
Maximum Humidity 86    
Minimum Humidity 69    
Precipitation  
Precipitation 0.00 in - - ()
Sea Level Pressure  
Sea Level Pressure 29.82 in    
Wind  
Wind Speed 13 mph (West)    
Max Wind Speed 24 mph    
Max Gust Speed 33 mph    
Visibility 6 miles    
Events Snow    
Averages and records for this station are not official NWS values.
T = Trace of Precipitation, MM = Missing Value Source: NWS Daily Summary

Daily Weather History Graph

Daily Weather History Graph

Search for Another Location

Airport or City:

Trip Planner

Search our weather history database for the weather conditions in past years. The results will help you decide how hot, cold, wet, or windy it might be!

Date:

Astronomy

Mar. 15, 2013 Rise Set
Actual Time 7:23 AM EDT 7:18 PM EDT
Civil Twilight 6:55 AM EDT 7:46 PM EDT
Nautical Twilight 6:23 AM EDT 8:19 PM EDT
Astronomical Twilight 5:50 AM EDT 8:52 PM EDT
Moon 9:07 AM EDT (3/15) 11:36 PM EDT (3/15)
Length of Visible Light 12h 51m
Length of Day
11h 55m
Waxing Crescent, 15% of the Moon is Illuminated
Mar 15
Waxing Crescent
Mar 19
First Quarter
Mar 27
Full
Apr 3
Last Quarter
Apr 10
New

Hourly Weather History & Observations

Time (EDT) Temp. Windchill Dew Point Humidity Pressure Visibility Wind Dir Wind Speed Gust Speed Precip Events Conditions
12:56 AM 19.9 °F 6.7 °F 12.9 °F 74% 30.06 in 10.0 mi WNW 13.8 mph - N/A   Partly Cloudy
1:56 AM 19.9 °F 10.1 °F 12.9 °F 74% 30.06 in 10.0 mi WNW 8.1 mph - N/A   Clear
2:56 AM 21.0 °F 11.4 °F 14.0 °F 74% 30.03 in 10.0 mi West 8.1 mph - N/A   Scattered Clouds
3:56 AM 19.9 °F 11.1 °F 14.0 °F 78% 30.00 in 10.0 mi West 6.9 mph - N/A   Clear
4:56 AM 19.9 °F 12.1 °F 12.9 °F 74% 29.97 in 10.0 mi WSW 5.8 mph - N/A   Clear
5:56 AM 21.9 °F 12.5 °F 15.1 °F 75% 29.95 in 10.0 mi SW 8.1 mph - N/A   Overcast
6:56 AM 21.0 °F 12.4 °F 15.1 °F 78% 29.94 in 10.0 mi SW 6.9 mph - N/A   Partly Cloudy
7:56 AM 23.0 °F 12.4 °F 16.0 °F 74% 29.90 in 10.0 mi WSW 10.4 mph - N/A   Mostly Cloudy
8:56 AM 25.0 °F 15.5 °F 17.1 °F 72% 29.87 in 10.0 mi WSW 9.2 mph 20.7 mph N/A   Overcast
9:56 AM 27.0 °F 15.6 °F 19.9 °F 75% 29.85 in 3.0 mi WSW 13.8 mph 24.2 mph 0.00 in Snow Light Snow
10:05 AM 28.4 °F 19.7 °F 21.2 °F 74% 29.76 in 2.5 mi WSW 9.2 mph 24.2 mph 0.00 in Snow Light Snow
10:17 AM 28.4 °F 18.0 °F 21.2 °F 74% 29.76 in 4.0 mi WSW 12.7 mph 19.6 mph 0.00 in Snow Light Snow
10:30 AM 28.4 °F 18.0 °F 21.2 °F 74% 29.76 in 4.0 mi West 12.7 mph 21.9 mph 0.00 in Snow Light Snow
10:56 AM 28.9 °F 18.6 °F 23.0 °F 78% 29.84 in 2.0 mi WSW 12.7 mph 21.9 mph 0.00 in Snow Light Snow
11:04 AM 28.4 °F 16.6 °F 24.8 °F 86% 29.75 in 1.5 mi WSW 16.1 mph 23.0 mph 0.00 in Snow Light Snow
11:56 AM 30.9 °F 21.2 °F 25.0 °F 79% 29.82 in 1.8 mi West 12.7 mph 24.2 mph 0.00 in Snow Light Snow
12:02 PM 30.2 °F 18.5 °F 24.8 °F 80% 29.74 in 2.0 mi West 17.3 mph 21.9 mph 0.00 in Snow Light Snow
12:12 PM 30.2 °F 19.3 °F 24.8 °F 80% 29.74 in 3.0 mi West 15.0 mph 23.0 mph 0.00 in Snow Light Snow
12:23 PM 30.2 °F 20.2 °F 24.8 °F 80% 29.74 in 3.0 mi West 12.7 mph 19.6 mph 0.00 in Snow Light Snow
12:30 PM 30.2 °F 19.8 °F 24.8 °F 80% 29.74 in 2.5 mi West 13.8 mph 19.6 mph 0.00 in Snow Light Snow
12:56 PM 30.0 °F 20.0 °F 25.0 °F 82% 29.82 in 2.5 mi West 12.7 mph 17.3 mph 0.00 in Snow Light Snow
1:04 PM 30.2 °F 20.2 °F 24.8 °F 80% 29.73 in 4.0 mi West 12.7 mph 18.4 mph 0.00 in Snow Light Snow
1:38 PM 30.2 °F 17.8 °F 26.6 °F 86% 29.72 in 2.5 mi West 19.6 mph 31.1 mph 0.00 in Snow Light Snow
1:51 PM 33.8 °F 22.5 °F 26.6 °F 75% 29.71 in 3.0 mi West 19.6 mph 29.9 mph 0.00 in Snow Light Snow
1:56 PM 33.1 °F 21.5 °F 27.0 °F 78% 29.78 in 3.0 mi West 19.6 mph 29.9 mph 0.00 in Snow Light Snow
2:17 PM 33.8 °F 22.2 °F 26.6 °F 75% 29.70 in 2.5 mi West 20.7 mph 29.9 mph 0.00 in Snow Light Snow
2:24 PM 32.0 °F 20.8 °F 26.6 °F 80% 29.70 in 2.0 mi West 17.3 mph 29.9 mph 0.00 in Snow Light Snow
2:56 PM 32.0 °F 18.9 °F 26.1 °F 79% 29.78 in 2.0 mi West 24.2 mph 33.4 mph 0.00 in Snow Light Snow
3:13 PM 30.2 °F 18.9 °F 26.6 °F 86% 29.71 in 2.0 mi West 16.1 mph 26.5 mph 0.00 in Snow Light Snow
3:52 PM 30.2 °F 17.8 °F 24.8 °F 80% 29.71 in 2.0 mi West 19.6 mph 24.2 mph 0.00 in Snow Light Snow
3:56 PM 30.9 °F 19.4 °F 26.1 °F 82% 29.79 in 1.8 mi West 17.3 mph 24.2 mph 0.00 in Snow Light Snow
4:03 PM 30.2 °F 18.9 °F 26.6 °F 86% 29.71 in 2.0 mi West 16.1 mph - 0.00 in Snow Light Snow
4:17 PM 30.2 °F 19.8 °F 26.6 °F 86% 29.72 in 4.0 mi West 13.8 mph - 0.00 in Snow Light Snow
4:56 PM 30.9 °F 19.4 °F 25.0 °F 79% 29.81 in 10.0 mi WNW 17.3 mph 24.2 mph 0.00 in   Overcast
5:56 PM 30.0 °F 19.5 °F 25.0 °F 82% 29.82 in 9.0 mi WNW 13.8 mph 27.6 mph 0.00 in   Overcast
6:56 PM 30.0 °F 17.2 °F 25.0 °F 82% 29.83 in 10.0 mi WNW 20.7 mph 27.6 mph N/A   Overcast
7:56 PM 30.0 °F 17.9 °F 25.0 °F 82% 29.84 in 10.0 mi WNW 18.4 mph 25.3 mph N/A   Overcast
8:44 PM 30.2 °F 18.9 °F 24.8 °F 80% 29.77 in 10.0 mi WNW 16.1 mph 26.5 mph N/A   Overcast
8:56 PM 30.0 °F 19.1 °F 23.0 °F 75% 29.85 in 10.0 mi WNW 15.0 mph 24.2 mph N/A   Overcast
9:56 PM 28.9 °F 17.7 °F 21.9 °F 75% 29.86 in 10.0 mi WNW 15.0 mph - N/A   Mostly Cloudy
10:06 PM 28.4 °F 15.4 °F 21.2 °F 74% 29.79 in 10.0 mi WNW 19.6 mph 25.3 mph N/A   Mostly Cloudy
10:21 PM 28.4 °F 15.8 °F 21.2 °F 74% 29.79 in 10.0 mi WNW 18.4 mph 21.9 mph N/A   Scattered Clouds
10:56 PM 28.0 °F 18.1 °F 21.0 °F 75% 29.87 in 10.0 mi WNW 11.5 mph - N/A   Scattered Clouds
11:56 PM 28.0 °F 16.5 °F 19.0 °F 69% 29.87 in 10.0 mi NW 15.0 mph 23.0 mph N/A   Partly Cloudy